TimeCDT,TemperatureF,Dew PointF,Humidity,Sea Level PressureIn,VisibilityMPH,Wind Direction,Wind SpeedMPH,Gust SpeedMPH,PrecipitationIn,Events,Conditions,WindDirDegrees,DateUTC
12:53 AM,64.0,57.0,78,29.71,10.0,NNW,15.0,20.7,N/A,,Overcast,340,2012-10-01 05:53:00
1:11 AM,64.4,57.2,77,29.68,10.0,NNW,15.0,19.6,N/A,,Overcast,330,2012-10-01 06:11:00
1:53 AM,64.0,57.9,80,29.71,10.0,NNW,8.1,18.4,N/A,,Overcast,340,2012-10-01 06:53:00
2:30 AM,62.6,57.2,82,29.68,10.0,NW,10.4,17.3,N/A,,Overcast,320,2012-10-01 07:30:00
2:38 AM,62.6,57.2,82,29.68,10.0,NNW,12.7,-,N/A,,Overcast,330,2012-10-01 07:38:00
2:47 AM,62.6,57.2,82,29.68,10.0,NW,10.4,-,N/A,,Overcast,320,2012-10-01 07:47:00
2:53 AM,63.0,57.9,84,29.70,10.0,NNW,12.7,18.4,N/A,,Overcast,330,2012-10-01 07:53:00
3:10 AM,62.6,57.2,82,29.67,10.0,NW,10.4,-,N/A,,Overcast,320,2012-10-01 08:10:00
3:53 AM,63.0,57.9,84,29.70,10.0,NW,10.4,-,N/A,,Overcast,320,2012-10-01 08:53:00
4:23 AM,62.6,59.0,88,29.68,10.0,NW,11.5,-,N/A,,Overcast,320,2012-10-01 09:23:00
4:46 AM,62.6,59.0,88,29.69,10.0,NW,9.2,-,N/A,,Overcast,310,2012-10-01 09:46:00
4:53 AM,63.0,59.0,87,29.71,10.0,NW,8.1,-,N/A,,Overcast,320,2012-10-01 09:53:00
5:21 AM,62.6,60.8,94,29.69,5.0,NNW,8.1,17.3,0.00,Rain,Light Rain,330,2012-10-01 10:21:00
5:28 AM,62.6,60.8,94,29.69,6.0,NW,9.2,18.4,0.00,Rain,Light Rain,310,2012-10-01 10:28:00
5:53 AM,62.1,60.1,93,29.72,6.0,NW,11.5,18.4,0.01,Rain,Light Rain,320,2012-10-01 10:53:00
6:19 AM,62.6,60.8,94,29.71,4.0,NW,11.5,18.4,0.00,Rain,Light Rain,320,2012-10-01 11:19:00
6:49 AM,62.6,59.0,88,29.72,10.0,NW,13.8,18.4,0.00,,Overcast,320,2012-10-01 11:49:00
6:53 AM,62.6,59.0,88,29.72,10.0,NNW,9.2,18.4,N/A,,Overcast,330,2012-10-01 11:53:00
7:23 AM,62.6,57.2,82,29.73,10.0,NNW,17.3,26.5,N/A,,Overcast,330,2012-10-01 12:23:00
7:29 AM,62.6,57.2,82,29.73,10.0,North,15.0,26.5,N/A,,Overcast,350,2012-10-01 12:29:00
7:53 AM,63.0,59.0,87,29.75,10.0,NNW,11.5,19.6,N/A,,Overcast,340,2012-10-01 12:53:00
8:53 AM,64.9,59.0,81,29.78,10.0,NW,8.1,-,N/A,,Overcast,320,2012-10-01 13:53:00
9:53 AM,68.0,57.2,68,29.75,10.0,NNW,11.5,17.3,N/A,,Overcast,340,2012-10-01 14:53:00
10:53 AM,72.0,57.0,59,29.77,10.0,NNW,15.0,21.9,N/A,,Partly Cloudy,330,2012-10-01 15:53:00
11:53 AM,75.0,57.0,53,29.76,10.0,NW,11.5,23.0,N/A,,Clear,320,2012-10-01 16:53:00
12:53 PM,78.1,59.0,52,29.74,10.0,NNW,11.5,18.4,N/A,,Clear,330,2012-10-01 17:53:00
1:53 PM,79.0,59.0,50,29.73,10.0,NNW,13.8,20.7,N/A,,Clear,340,2012-10-01 18:53:00
2:53 PM,82.0,57.9,44,29.72,10.0,NNW,12.7,19.6,N/A,,Partly Cloudy,340,2012-10-01 19:53:00
3:53 PM,81.0,55.0,41,29.72,10.0,NW,13.8,21.9,N/A,,Partly Cloudy,320,2012-10-01 20:53:00
4:53 PM,80.6,55.4,42,29.71,10.0,NNW,10.4,17.3,N/A,,Clear,330,2012-10-01 21:53:00
5:53 PM,79.0,55.9,45,29.74,10.0,NW,11.5,-,N/A,,Clear,320,2012-10-01 22:53:00
6:53 PM,75.0,57.0,53,29.75,10.0,NW,5.8,-,N/A,,Clear,320,2012-10-01 23:53:00
7:53 PM,70.0,60.1,71,29.77,10.0,NNW,4.6,-,N/A,,Clear,340,2012-10-02 00:53:00
8:53 PM,64.9,62.1,90,29.80,10.0,Calm,Calm,-,N/A,,Clear,0,2012-10-02 01:53:00
9:53 PM,64.0,62.1,93,29.81,10.0,Calm,Calm,-,N/A,,Clear,0,2012-10-02 02:53:00
10:53 PM,64.0,61.0,90,29.83,10.0,Calm,Calm,-,N/A,,Clear,0,2012-10-02 03:53:00
11:53 PM,63.0,61.0,93,29.83,10.0,Calm,Calm,-,N/A,,Clear,0,2012-10-02 04:53:00